Delta, CO

3:23 PM MST on December 06, 2016 (GMT -0700)
Delta

Weather History for KAJZ - October, 2012

Change the Weather History Date:

Sunday, October 7, 2012

  Actual Average (KMTJ) Record (KMTJ)
Temperature  
Mean Temperature 50 °F 54 °F  
Max Temperature 67 °F 69 °F 81 °F (2010)
Min Temperature 32 °F 39 °F 27 °F (2007)
Degree Days  
Heating Degree Days 16 11  
Month to date heating degree days 71  
Since 1 July heating degree days 198  
Cooling Degree Days 0 0  
Month to date cooling degree days 0  
Year to date cooling degree days 643  
Moisture  
Dew Point 8 °F    
Average Humidity 24    
Maximum Humidity 45    
Minimum Humidity 6    
Precipitation  
Precipitation 0.00 in 0.04 in 0.17 in (1997)
Month to date precipitation 0.39  
Year to date precipitation 9.04  
Sea Level Pressure  
Sea Level Pressure 30.14 in    
Wind  
Wind Speed 3 mph ()    
Max Wind Speed 14 mph    
Max Gust Speed 20 mph    
Visibility 10.0 miles    
Events      
T = Trace of Precipitation, MM = Missing Value Source: Averaged Metar Reports

Daily Weather History Graph

Daily Weather History Graph

Search for Another Location

Airport or City:

Trip Planner

Search our weather history database for the weather conditions in past years. The results will help you decide how hot, cold, wet, or windy it might be!

Date:

Astronomy

Oct. 07, 2012 Rise Set
Actual Time 7:14 AM MDT 6:44 PM MDT
Civil Twilight 6:47 AM MDT 7:11 PM MDT
Nautical Twilight 6:16 AM MDT 7:42 PM MDT
Astronomical Twilight 5:45 AM MDT 8:13 PM MDT
Moon No Moon Rise 1:51 PM MDT (10/7)
Length of Visible Light 12h 23m
Length of Day
11h 30m
Waning Gibbous, 55% of the Moon is Illuminated
Oct 7
Waning Gibbous
Oct 8
Last Quarter
Oct 15
New
Oct 21
First Quarter
Oct 29
Full

Hourly Weather History & Observations

Time (MDT) Temp. Windchill Dew Point Humidity Pressure Visibility Wind Dir Wind Speed Gust Speed Precip Events Conditions
12:15 AM 43.2 °F - 11.5 °F 28% 30.09 in 10.0 mi Calm Calm - N/A   Unknown
12:35 AM 41.9 °F 40.0 °F 14.9 °F 34% 30.09 in 10.0 mi North 3.5 mph - N/A   Unknown
12:55 AM 38.7 °F 36.3 °F 18.9 °F 45% 30.09 in 10.0 mi NE 3.5 mph - N/A   Unknown
1:15 AM 39.4 °F - 12.9 °F 34% 30.09 in 10.0 mi Calm Calm - N/A   Unknown
1:35 AM 39.4 °F - 13.1 °F 34% 30.10 in 10.0 mi Calm Calm - N/A   Unknown
1:55 AM 37.9 °F - 14.4 °F 38% 30.10 in 10.0 mi Calm Calm - N/A   Unknown
2:15 AM 36.3 °F 33.7 °F 12.4 °F 37% 30.11 in 10.0 mi ESE 3.5 mph - N/A   Unknown
2:35 AM 35.2 °F - 11.8 °F 38% 30.10 in 10.0 mi Calm Calm - N/A   Unknown
2:55 AM 34.9 °F - 15.6 °F 45% 30.11 in 10.0 mi Calm Calm - N/A   Unknown
3:15 AM 35.6 °F 32.8 °F 12.9 °F 39% 30.10 in 10.0 mi NE 3.5 mph - N/A   Unknown
3:35 AM 34.2 °F 31.2 °F 11.7 °F 39% 30.11 in 10.0 mi East 3.5 mph - N/A   Unknown
3:55 AM 35.6 °F - 12.2 °F 38% 30.11 in 10.0 mi Calm Calm - N/A   Unknown
4:15 AM 37.0 °F - 10.8 °F 34% 30.11 in 10.0 mi Calm Calm - N/A   Unknown
4:35 AM 35.6 °F - 10.4 °F 35% 30.12 in 10.0 mi Calm Calm - N/A   Unknown
4:55 AM 34.7 °F 30.6 °F 9.5 °F 35% 30.13 in 10.0 mi East 4.6 mph - N/A   Unknown
5:15 AM 32.9 °F 27.5 °F 6.6 °F 33% 30.13 in 10.0 mi ENE 5.8 mph - N/A   Unknown
5:35 AM 32.0 °F 27.5 °F 8.6 °F 38% 30.14 in 10.0 mi NE 4.6 mph - N/A   Unknown
5:55 AM 34.0 °F - 8.4 °F 34% 30.14 in 10.0 mi Calm Calm - N/A   Unknown
6:15 AM 34.3 °F 31.4 °F 11.5 °F 39% 30.15 in 10.0 mi ENE 3.5 mph - N/A   Unknown
6:35 AM 32.0 °F 28.7 °F 10.0 °F 40% 30.16 in 10.0 mi NE 3.5 mph - N/A   Unknown
6:55 AM 32.4 °F - 12.7 °F 44% 30.16 in 10.0 mi Calm Calm - N/A   Unknown
7:15 AM 33.1 °F - 12.7 °F 43% 30.17 in 10.0 mi Calm Calm - N/A   Unknown
7:35 AM 32.0 °F - 11.3 °F 42% 30.18 in 10.0 mi Calm Calm - N/A   Unknown
7:55 AM 32.0 °F - 11.3 °F 42% 30.19 in 10.0 mi Calm Calm - N/A   Unknown
8:35 AM 37.8 °F - 11.1 °F 33% 30.20 in 10.0 mi Calm Calm - N/A   Unknown
8:55 AM 38.5 °F - 10.6 °F 32% 30.21 in 10.0 mi Calm Calm - N/A   Unknown
9:15 AM 40.6 °F 38.6 °F 10.4 °F 29% 30.22 in 10.0 mi NE 3.5 mph - N/A   Unknown
9:35 AM 42.8 °F 40.1 °F 10.9 °F 27% 30.23 in 10.0 mi East 4.6 mph - N/A   Unknown
9:55 AM 43.5 °F 40.9 °F 11.7 °F 27% 30.22 in 10.0 mi East 4.6 mph - N/A   Unknown
10:15 AM 44.4 °F 41.2 °F 14.0 °F 29% 30.22 in 10.0 mi NE 5.8 mph - N/A   Unknown
10:35 AM 46.2 °F 44.1 °F 14.4 °F 28% 30.22 in 10.0 mi ESE 4.6 mph - N/A   Unknown
10:55 AM 48.4 °F - 12.6 °F 24% 30.21 in 10.0 mi Calm Calm - N/A   Unknown
11:15 AM 50.2 °F - 12.4 °F 22% 30.20 in 10.0 mi East 3.5 mph - N/A   Unknown
11:35 AM 51.8 °F - 11.5 °F 20% 30.20 in 10.0 mi Calm Calm - N/A   Unknown
11:55 AM 52.9 °F - 10.0 °F 18% 30.19 in 10.0 mi Calm Calm - N/A   Unknown
12:15 PM 55.8 °F - 10.6 °F 17% 30.19 in 10.0 mi Calm Calm - N/A   Unknown
12:35 PM 57.0 °F - 6.4 °F 13% 30.17 in 10.0 mi Calm Calm - N/A   Unknown
12:55 PM 58.1 °F - 5.0 °F 12% 30.17 in 10.0 mi South 5.8 mph - N/A   Unknown
1:35 PM 60.1 °F - 5.9 °F 12% 30.15 in 10.0 mi SW 3.5 mph - N/A   Unknown
1:55 PM 62.1 °F - 5.0 °F 10% 30.14 in 10.0 mi SW 10.4 mph - N/A   Unknown
2:15 PM 63.1 °F - 4.5 °F 10% 30.13 in 10.0 mi West 9.2 mph - N/A   Unknown
2:35 PM 64.0 °F - 4.1 °F 9% 30.12 in 10.0 mi SSW 11.5 mph - N/A   Unknown
2:55 PM 65.3 °F - 3.6 °F 9% 30.11 in 10.0 mi SSW 10.4 mph 19.6 mph N/A   Unknown
3:15 PM 65.7 °F - 2.1 °F 8% 30.11 in 10.0 mi West 3.5 mph - N/A   Unknown
3:35 PM 66.2 °F - 1.6 °F 8% 30.10 in 10.0 mi SSW 11.5 mph 17.3 mph N/A   Unknown
3:55 PM 66.4 °F - -2.0 °F 6% 30.10 in 10.0 mi SW 10.4 mph 16.1 mph N/A   Unknown
4:15 PM 67.1 °F - 0.1 °F 7% 30.09 in 10.0 mi West 4.6 mph 17.3 mph N/A   Unknown
4:35 PM 66.9 °F - -2.4 °F 6% 30.08 in 10.0 mi WSW 12.7 mph 16.1 mph N/A   Unknown
4:55 PM 66.4 °F - -1.8 °F 7% 30.08 in 10.0 mi WSW 12.7 mph 16.1 mph N/A   Unknown
5:15 PM 66.2 °F - -1.7 °F 7% 30.08 in 10.0 mi WSW 13.8 mph 18.4 mph N/A   Unknown
5:35 PM 65.8 °F - -2.2 °F 7% 30.08 in 10.0 mi WSW 12.7 mph 17.3 mph N/A   Unknown
5:55 PM 64.9 °F - -2.6 °F 7% 30.08 in 10.0 mi WSW 10.4 mph 17.3 mph N/A   Unknown
6:15 PM 64.0 °F - -0.2 °F 8% 30.08 in 10.0 mi West 8.1 mph - N/A   Unknown
6:35 PM 62.2 °F - 1.4 °F 9% 30.09 in 10.0 mi NW 6.9 mph - N/A   Unknown
6:55 PM 60.1 °F - 1.8 °F 10% 30.09 in 10.0 mi Calm Calm - N/A   Unknown
7:15 PM 58.1 °F - 2.1 °F 10% 30.10 in 10.0 mi Calm Calm - N/A   Unknown
7:35 PM 55.9 °F - 1.2 °F 11% 30.11 in 10.0 mi Calm Calm - N/A   Unknown
7:55 PM 52.7 °F - 4.1 °F 14% 30.12 in 10.0 mi Calm Calm - N/A   Unknown
8:15 PM 54.3 °F - 3.7 °F 13% 30.12 in 10.0 mi Calm Calm - N/A   Unknown
8:35 PM 51.6 °F - 8.1 °F 17% 30.13 in 10.0 mi Calm Calm - N/A   Unknown
8:55 PM 48.4 °F - 5.5 °F 17% 30.13 in 10.0 mi East 3.5 mph - N/A   Unknown
9:15 PM 49.8 °F - 3.7 °F 15% 30.14 in 10.0 mi Calm Calm - N/A   Unknown
9:35 PM 49.8 °F - 3.4 °F 15% 30.14 in 10.0 mi NE 3.5 mph - N/A   Unknown
9:55 PM 44.6 °F 40.2 °F 2.1 °F 17% 30.14 in 10.0 mi East 8.1 mph - N/A   Unknown
10:15 PM 43.3 °F 39.2 °F 5.0 °F 21% 30.15 in 10.0 mi NE 6.9 mph - N/A   Unknown
10:35 PM 44.1 °F 40.1 °F 7.7 °F 23% 30.15 in 10.0 mi NE 6.9 mph - N/A   Unknown
10:55 PM 43.7 °F 39.1 °F 8.4 °F 24% 30.15 in 10.0 mi ENE 8.1 mph - N/A   Unknown
11:15 PM 43.3 °F 39.2 °F 10.0 °F 26% 30.16 in 10.0 mi ESE 6.9 mph - N/A   Unknown
11:35 PM 39.6 °F 35.4 °F 11.3 °F 31% 30.15 in 10.0 mi NE 5.8 mph - N/A   Unknown
11:55 PM 39.6 °F 34.7 °F 9.9 °F 30% 30.16 in 10.0 mi East 6.9 mph - N/A   Unknown